EW0395 Weather Reports


Display with metric or nautical units.
time (UTC)temp
F
wind
direction
speed
MPH
gust
MPH
rain 1hr
in
rain 24hr
in
rain mn
in
humidity
%
barometer
mb
20260509060045 31 0 0.0 0.0 0.00 0.00 0.00 90 1013.4
20260509054535 32 136 0.0 1.0 0.00 0.00 0.00 90 1013.4
20260509053035 31 0 0.0 0.0 0.00 0.00 0.00 90 1013.3
20260509051533 32 0 0.0 0.0 0.00 0.00 0.00 89 1013.3
20260509050031 32 0 0.0 0.0 0.00 0.00 0.00 88 1013.0
20260509044536 33 0 0.0 0.0 0.00 0.00 0.00 88 1013.0
20260509043036 33 0 0.0 1.0 0.00 0.00 0.00 88 1012.9
20260509041532 33 0 0.0 1.0 0.00 0.00 0.00 87 1012.9
20260509040029 34 0 0.0 1.0 0.00 0.00 0.00 87 1013.0
20260509034545 34 0 0.0 0.0 0.00 0.00 0.00 86 1012.8
20260509033031 35 0 0.0 1.0 0.00 0.00 0.00 85 1012.9
20260509031532 35 0 0.0 1.0 0.00 0.00 0.00 84 1012.6
20260509030030 36 0 0.0 1.0 0.00 0.00 0.00 82 1012.6
20260509024533 37 0 0.0 1.0 0.00 0.00 0.00 81 1012.5
20260509023032 38 0 0.0 0.0 0.00 0.00 0.00 80 1012.5
20260509021535 38 0 0.0 0.0 0.00 0.00 0.00 79 1012.4
20260509020038 39 0 0.0 0.0 0.00 0.00 0.00 77 1012.2
20260509014532 40 0 0.0 1.0 0.00 0.00 0.00 75 1012.0
20260509013036 41 0 0.0 1.0 0.00 0.00 0.00 74 1011.8
20260509011540 41 0 0.0 0.0 0.00 0.00 0.00 71 1011.5
20260509010039 42 0 0.0 0.0 0.00 0.00 0.00 70 1011.2
20260509004540 43 0 0.0 0.0 0.00 0.00 0.00 66 1011.0
20260509003031 44 0 0.0 0.0 0.00 0.00 0.00 64 1010.7
20260509001532 45 0 0.0 0.0 0.00 0.00 0.00 64 1010.6
20260509000032 46 225 0.0 1.0 0.00 0.00 0.00 63 1010.4
20260508234532 46 215 0.0 1.0 0.00 0.00 0.00 62 1010.2
20260508233032 47 241 0.0 1.0 0.00 0.00 0.00 60 1010.0
20260508231534 47 265 0.0 4.0 0.00 0.00 0.00 59 1009.9
20260508230036 48 200 1.0 3.0 0.00 0.00 0.00 56 1009.9
20260508224534 49 0 0.0 1.0 0.00 0.00 0.00 54 1009.7
20260508223041 49 0 0.0 2.0 0.00 0.00 0.00 52 1009.6
20260508221531 51 207 0.0 2.0 0.00 0.00 0.00 47 1009.6
20260508220033 52 280 1.0 3.0 0.00 0.00 0.00 40 1009.4
20260508214538 51 309 1.0 3.0 0.00 0.00 0.00 40 1009.2
20260508213034 51 240 1.0 3.0 0.00 0.00 0.00 40 1009.3
20260508211534 51 153 1.0 4.0 0.00 0.00 0.00 39 1009.2
20260508210030 51 0 0.0 1.0 0.00 0.00 0.00 39 1009.0
20260508204541 52 218 0.0 2.0 0.00 0.00 0.00 39 1008.9
20260508203031 52 239 0.0 2.0 0.00 0.00 0.00 37 1008.7
20260508201532 53 267 1.0 5.0 0.00 0.00 0.00 35 1008.7
20260508200030 53 262 1.0 4.0 0.00 0.00 0.00 37 1008.8
20260508194532 54 9 1.0 6.0 0.00 0.00 0.00 36 1008.6
20260508193039 51 143 1.0 3.0 0.00 0.00 0.00 38 1008.8
20260508191534 51 263 0.0 1.0 0.00 0.00 0.00 39 1008.8
20260508190031 51 259 1.0 4.0 0.00 0.00 0.00 38 1009.0
20260508184534 52 0 0.0 2.0 0.00 0.00 0.00 40 1008.9
20260508183032 51 224 1.0 3.0 0.00 0.00 0.00 39 1009.0
20260508181533 52 309 0.0 8.0 0.00 0.00 0.00 38 1009.0
20260508180038 52 313 1.0 3.0 0.00 0.00 0.00 37 1009.1
20260508174537 53 296 1.0 5.0 0.00 0.00 0.00 36 1009.0
20260508173032 52 269 0.0 5.0 0.00 0.00 0.00 38 1009.2
20260508171540 52 157 1.0 6.0 0.00 0.00 0.00 36 1009.2
20260508170037 52 269 1.0 7.0 0.00 0.00 0.00 36 1009.2
20260508164533 52 320 1.0 4.0 0.00 0.00 0.00 36 1009.3
20260508163033 51 214 1.0 4.0 0.00 0.00 0.00 38 1009.3
20260508161532 55 304 2.0 8.0 0.00 0.00 0.00 32 1009.2
20260508160053 57 253 2.0 5.0 0.00 0.00 0.00 31 1009.0
20260508154533 55 261 2.0 4.0 0.00 0.00 0.00 34 1008.9
20260508153042 53 240 2.0 6.0 0.00 0.00 0.00 34 1009.0
20260508151533 51 301 2.0 4.0 0.00 0.00 0.00 38 1009.0
20260508150035 54 296 1.0 4.0 0.00 0.00 0.00 36 1009.1
20260508144534 52 272 1.0 5.0 0.00 0.00 0.00 35 1009.0
20260508143039 49 276 2.0 5.0 0.00 0.00 0.00 38 1009.1
20260508141537 48 73 1.0 6.0 0.00 0.00 0.00 38 1009.2
20260508140038 50 294 1.0 6.0 0.00 0.00 0.00 39 1009.0
20260508134535 51 336 1.0 5.0 0.00 0.00 0.00 42 1009.3
20260508133034 48 211 1.0 6.0 0.00 0.00 0.00 48 1009.4
20260508131531 46 273 1.0 3.0 0.00 0.00 0.00 51 1009.5
20260508130030 47 0 0.0 7.0 0.00 0.00 0.00 50 1009.6
20260508124534 46 314 1.0 3.0 0.00 0.00 0.00 56 1009.6
20260508123032 47 211 0.0 5.0 0.00 0.00 0.00 57 1009.5
20260508121553 45 0 0.0 1.0 0.00 0.00 0.00 70 1009.4
20260508120036 41 0 0.0 1.0 0.00 0.00 0.00 74 1009.5
20260508114531 38 234 0.0 1.0 0.00 0.00 0.00 81 1009.3
20260508113036 36 0 0.0 0.0 0.00 0.00 0.00 83 1009.3
20260508111532 33 0 0.0 0.0 0.00 0.00 0.00 89 1009.2
20260508110045 32 0 0.0 0.0 0.00 0.00 0.00 90 1009.0
20260508104532 31 0 0.0 0.0 0.00 0.01 0.00 90 1008.8
20260508103034 30 0 0.0 0.0 0.00 0.01 0.00 90 1008.7
20260508101535 29 0 0.0 0.0 0.00 0.01 0.00 90 1008.5
20260508100034 29 0 0.0 0.0 0.00 0.01 0.00 90 1008.5
20260508094530 29 0 0.0 0.0 0.00 0.01 0.00 90 1008.2
20260508093035 29 0 0.0 0.0 0.00 0.01 0.00 90 1008.2
20260508091532 29 0 0.0 0.0 0.00 0.01 0.00 91 1008.1
20260508090034 29 0 0.0 0.0 0.00 0.01 0.00 91 1008.1
20260508084535 29 0 0.0 0.0 0.00 0.01 0.00 91 1008.2
20260508083114 29 0 0.0 0.0 0.00 0.01 0.00 92 1008.2
20260508081532 28 0 0.0 0.0 0.00 0.01 0.00 92 1008.0
20260508080032 28 0 0.0 0.0 0.00 0.01 0.00 91 1007.9
20260508074536 28 0 0.0 0.0 0.00 0.01 0.00 92 1007.6
20260508073034 28 0 0.0 0.0 0.00 0.01 0.00 91 1007.6
20260508071535 29 0 0.0 0.0 0.00 0.01 0.00 90 1007.7
20260508070035 29 0 0.0 0.0 0.00 0.01 0.00 90 1007.8
20260508064553 29 0 0.0 0.0 0.00 0.01 0.00 89 1007.9
20260508063038 30 0 0.0 0.0 0.00 0.01 0.00 89 1007.9
20260508061532 30 0 0.0 0.0 0.00 0.01 0.00 88 1007.9